Location: Boiro
(42.6475°N, 8.8834°W)
Time: 06:42:59
(UTC+01:00)

Vanguard 1 - Pass Details

Date: 06 December 2021
Orbit: 652 x 3830 km, 34.2° (Epoch: 21 January)

Event Time Altitude Azimuth Distance (km) Brightness Sun altitude
Rises 06:56:36 0° 283° (WNW) 7,933 - -20.4°
Reaches altitude 10° 07:02:55 10° 277° (W) 6,728 - -19.2°
Exits shadow 07:08:13 19° 268° (W) 5,709 13.3 -18.3°
Maximum altitude 07:20:32 36° 220° (SW) 3,840 12.8 -16.1°
Drops below altitude 10° 07:31:59 10° 159° (SSE) 4,393 13.9 -14.1°
Sets 07:35:08 0° 150° (SSE) 5,010 14.5 -13.5°
